| time (UTC) | temp C | wind direction | speed KPH | gust KPH | rain 1hr cm | rain 24hr cm | rain mn cm | humidity % | barometer mb |
| 20260506061720 | 15 | 36 | 9.7 | 14.5 | 0.00 | 0.00 | 0.00 | 75 | 1011.8 |
| 20260506060720 | 16 | 4 | 9.7 | 14.5 | 0.00 | 0.00 | 0.00 | 75 | 1011.7 |
| 20260506050820 | 16 | 23 | 8.0 | 17.7 | 0.00 | 0.00 | 0.00 | 74 | 1011.8 |
| 20260506044825 | 17 | 15 | 16.1 | 20.9 | 0.00 | 0.00 | 0.00 | 73 | 1011.7 |
| 20260506043825 | 17 | 24 | 12.9 | 22.5 | 0.00 | 0.00 | 0.00 | 73 | 1011.6 |
| 20260506042826 | 17 | 26 | 14.5 | 17.7 | 0.00 | 0.00 | 0.00 | 73 | 1011.5 |
| 20260506041826 | 17 | 27 | 14.5 | 20.9 | 0.00 | 0.00 | 0.00 | 72 | 1011.7 |
| 20260506040827 | 18 | 14 | 12.9 | 22.5 | 0.00 | 0.00 | 0.00 | 72 | 1011.7 |
| 20260506035924 | 18 | 9 | 11.3 | 14.5 | 0.00 | 0.00 | 0.00 | 71 | 1011.7 |
| 20260506034925 | 18 | 359 | 16.1 | 24.1 | 0.00 | 0.00 | 0.00 | 70 | 1011.4 |
| 20260506033927 | 18 | 16 | 14.5 | 25.7 | 0.00 | 0.00 | 0.00 | 70 | 1011.0 |
| 20260506032925 | 18 | 3 | 14.5 | 25.7 | 0.00 | 0.00 | 0.00 | 69 | 1010.9 |
| 20260506031927 | 19 | 8 | 16.1 | 24.1 | 0.00 | 0.00 | 0.00 | 69 | 1010.8 |
| 20260506030925 | 19 | 2 | 16.1 | 22.5 | 0.00 | 0.00 | 0.00 | 68 | 1010.4 |
| 20260506030024 | 19 | 8 | 11.3 | 16.1 | 0.00 | 0.00 | 0.00 | 68 | 1010.1 |
| 20260506025026 | 20 | 26 | 12.9 | 17.7 | 0.00 | 0.00 | 0.00 | 67 | 1010.0 |
| 20260506024026 | 20 | 17 | 11.3 | 16.1 | 0.00 | 0.00 | 0.00 | 67 | 1010.1 |
| 20260506023125 | 20 | 24 | 17.7 | 24.1 | 0.00 | 0.00 | 0.00 | 67 | 1009.7 |
| 20260506022125 | 20 | 1 | 12.9 | 20.9 | 0.00 | 0.00 | 0.00 | 66 | 1009.6 |
| 20260506021125 | 20 | 7 | 14.5 | 25.7 | 0.00 | 0.00 | 0.00 | 66 | 1009.5 |
| 20260506020125 | 21 | 3 | 14.5 | 22.5 | 0.00 | 0.00 | 0.00 | 66 | 1009.2 |
| 20260506020026 | 21 | 12 | 16.1 | 24.1 | 0.00 | 0.00 | 0.00 | 66 | 1009.2 |
| 20260506015025 | 21 | 9 | 14.5 | 19.3 | 0.00 | 0.00 | 0.00 | 66 | 1008.8 |
| 20260506014026 | 21 | 19 | 11.3 | 16.1 | 0.00 | 0.00 | 0.00 | 65 | 1008.6 |
| 20260506013027 | 22 | 8 | 11.3 | 19.3 | 0.00 | 0.00 | 0.00 | 64 | 1008.3 |
| 20260506012126 | 22 | 24 | 14.5 | 19.3 | 0.00 | 0.00 | 0.00 | 64 | 1008.1 |
| 20260506011139 | 22 | 13 | 11.3 | 14.5 | 0.00 | 0.00 | 0.00 | 63 | 1007.7 |
| 20260506005225 | 23 | 356 | 6.4 | 9.7 | 0.00 | 0.00 | 0.00 | 62 | 1007.7 |
| 20260506004238 | 23 | 348 | 8.0 | 12.9 | 0.00 | 0.00 | 0.00 | 62 | 1007.6 |
| 20260506003226 | 23 | 355 | 8.0 | 12.9 | 0.00 | 0.00 | 0.00 | 61 | 1007.3 |
| 20260506002325 | 23 | 20 | 9.7 | 14.5 | 0.00 | 0.00 | 0.00 | 59 | 1007.4 |
| 20260506001327 | 24 | 9 | 12.9 | 17.7 | 0.00 | 0.00 | 0.00 | 58 | 1007.2 |
| 20260506000425 | 24 | 360 | 14.5 | 22.5 | 0.00 | 0.00 | 0.00 | 56 | 1007.1 |
| 20260505235427 | 25 | 5 | 11.3 | 19.3 | 0.00 | 0.00 | 0.00 | 56 | 1007.1 |
| 20260505232624 | 26 | 338 | 12.9 | 24.1 | 0.00 | 0.00 | 0.00 | 56 | 1006.6 |
| 20260505231724 | 26 | 350 | 12.9 | 22.5 | 0.00 | 0.00 | 0.00 | 55 | 1006.6 |
| 20260505230726 | 27 | 5 | 17.7 | 25.7 | 0.00 | 0.00 | 0.00 | 55 | 1006.3 |
| 20260505225726 | 27 | 14 | 9.7 | 19.3 | 0.00 | 0.00 | 0.00 | 55 | 1006.3 |
| 20260505224728 | 28 | 360 | 12.9 | 19.3 | 0.00 | 0.00 | 0.00 | 50 | 1006.0 |
| 20260505223724 | 30 | 8 | 9.7 | 14.5 | 0.00 | 0.00 | 0.00 | 44 | 1005.9 |
| 20260505222727 | 30 | 348 | 9.7 | 17.7 | 0.00 | 0.00 | 0.00 | 42 | 1005.8 |
| 20260505220724 | 32 | 4 | 14.5 | 19.3 | 0.00 | 0.00 | 0.00 | 40 | 1005.7 |
| 20260505215726 | 33 | 5 | 8.0 | 16.1 | 0.00 | 0.00 | 0.00 | 39 | 1005.4 |
| 20260505214725 | 33 | 252 | 8.0 | 14.5 | 0.00 | 0.00 | 0.00 | 38 | 1005.5 |
| 20260505214625 | 33 | 290 | 4.8 | 9.7 | 0.00 | 0.00 | 0.00 | 38 | 1005.6 |
| 20260505213625 | 33 | 265 | 3.2 | 6.4 | 0.00 | 0.00 | 0.00 | 38 | 1005.6 |
| 20260505212626 | 33 | 236 | 4.8 | 8.0 | 0.00 | 0.00 | 0.00 | 37 | 1005.6 |
| 20260505211625 | 34 | 250 | 6.4 | 9.7 | 0.00 | 0.00 | 0.00 | 37 | 1005.8 |
| 20260505210625 | 33 | 224 | 6.4 | 8.0 | 0.00 | 0.00 | 0.00 | 38 | 1005.8 |
| 20260505205725 | 33 | 286 | 6.4 | 11.3 | 0.00 | 0.00 | 0.00 | 36 | 1006.1 |
| 20260505204726 | 33 | 235 | 6.4 | 12.9 | 0.00 | 0.00 | 0.00 | 39 | 1006.1 |
| 20260505203727 | 32 | 240 | 11.3 | 17.7 | 0.00 | 0.00 | 0.00 | 43 | 1006.3 |
| 20260505202724 | 32 | 200 | 6.4 | 9.7 | 0.00 | 0.00 | 0.00 | 44 | 1006.3 |
| 20260505202624 | 32 | 201 | 6.4 | 9.7 | 0.00 | 0.00 | 0.00 | 44 | 1006.2 |
| 20260505201625 | 32 | 227 | 12.9 | 22.5 | 0.00 | 0.00 | 0.00 | 45 | 1006.4 |
| 20260505200628 | 32 | 236 | 9.7 | 17.7 | 0.00 | 0.00 | 0.00 | 44 | 1006.5 |
| 20260505195626 | 31 | 233 | 4.8 | 8.0 | 0.00 | 0.00 | 0.00 | 46 | 1006.5 |
| 20260505194626 | 31 | 218 | 9.7 | 19.3 | 0.00 | 0.00 | 0.00 | 46 | 1006.5 |
| 20260505193725 | 31 | 234 | 16.1 | 24.1 | 0.00 | 0.00 | 0.00 | 49 | 1006.5 |
| 20260505192824 | 31 | 240 | 9.7 | 16.1 | 0.00 | 0.00 | 0.00 | 49 | 1006.6 |
| 20260505191825 | 30 | 226 | 14.5 | 19.3 | 0.00 | 0.00 | 0.00 | 50 | 1006.7 |
| 20260505190826 | 30 | 213 | 17.7 | 25.7 | 0.00 | 0.00 | 0.00 | 51 | 1006.6 |
| 20260505185824 | 30 | 199 | 16.1 | 24.1 | 0.00 | 0.00 | 0.00 | 52 | 1006.6 |
| 20260505184826 | 30 | 246 | 19.3 | 29.0 | 0.00 | 0.00 | 0.00 | 53 | 1006.4 |
| 20260505183825 | 30 | 225 | 17.7 | 25.7 | 0.00 | 0.00 | 0.00 | 53 | 1006.7 |
| 20260505182825 | 29 | 225 | 11.3 | 17.7 | 0.00 | 0.00 | 0.00 | 57 | 1006.7 |
| 20260505181826 | 29 | 221 | 9.7 | 16.1 | 0.00 | 0.00 | 0.00 | 58 | 1006.8 |
| 20260505180825 | 28 | 224 | 17.7 | 27.4 | 0.00 | 0.00 | 0.00 | 58 | 1006.9 |
| 20260505175826 | 28 | 219 | 17.7 | 29.0 | 0.00 | 0.00 | 0.00 | 60 | 1007.0 |
| 20260505173925 | 27 | 222 | 14.5 | 20.9 | 0.00 | 0.00 | 0.00 | 62 | 1007.0 |
| 20260505173024 | 27 | 225 | 19.3 | 30.6 | 0.00 | 0.00 | 0.00 | 64 | 1007.0 |
| 20260505172026 | 27 | 209 | 12.9 | 17.7 | 0.00 | 0.00 | 0.00 | 65 | 1007.1 |
| 20260505171124 | 27 | 223 | 16.1 | 24.1 | 0.00 | 0.00 | 0.00 | 65 | 1007.0 |
| 20260505170126 | 27 | 218 | 17.7 | 29.0 | 0.00 | 0.00 | 0.00 | 65 | 1007.0 |
| 20260505165224 | 27 | 217 | 11.3 | 19.3 | 0.00 | 0.00 | 0.00 | 66 | 1007.2 |
| 20260505163323 | 26 | 214 | 20.9 | 27.4 | 0.00 | 0.00 | 0.00 | 67 | 1007.1 |
| 20260505161325 | 25 | 218 | 20.9 | 32.2 | 0.00 | 0.00 | 0.00 | 69 | 1006.6 |
| 20260505160325 | 25 | 212 | 16.1 | 25.7 | 0.00 | 0.00 | 0.00 | 70 | 1006.5 |
| 20260505152525 | 24 | 231 | 17.7 | 29.0 | 0.00 | 0.00 | 0.00 | 73 | 1006.7 |
| 20260505151525 | 24 | 220 | 22.5 | 33.8 | 0.00 | 0.00 | 0.00 | 73 | 1006.8 |
| 20260505150543 | 23 | 214 | 19.3 | 29.0 | 0.00 | 0.00 | 0.00 | 75 | 1006.8 |
| 20260505140624 | 22 | 209 | 17.7 | 27.4 | 0.00 | 0.00 | 0.00 | 79 | 1006.8 |
| 20260505124727 | 21 | 196 | 16.1 | 25.7 | 0.00 | 0.00 | 0.00 | 82 | 1006.5 |
| 20260505123725 | 21 | 201 | 12.9 | 17.7 | 0.00 | 0.00 | 0.00 | 83 | 1006.5 |
| 20260505122725 | 21 | 204 | 14.5 | 17.7 | 0.00 | 0.00 | 0.00 | 82 | 1006.1 |
| 20260505121724 | 21 | 212 | 14.5 | 20.9 | 0.00 | 0.00 | 0.00 | 83 | 1006.3 |
| 20260505120725 | 21 | 216 | 17.7 | 25.7 | 0.00 | 0.00 | 0.00 | 83 | 1006.2 |
| 20260505115726 | 20 | 209 | 16.1 | 22.5 | 0.00 | 0.00 | 0.00 | 83 | 1005.9 |
| 20260505114824 | 20 | 210 | 12.9 | 19.3 | 0.00 | 0.00 | 0.00 | 83 | 1005.8 |
| 20260505113825 | 20 | 211 | 12.9 | 17.7 | 0.00 | 0.00 | 0.00 | 83 | 1006.1 |
| 20260505111825 | 20 | 206 | 17.7 | 25.7 | 0.00 | 0.00 | 0.00 | 83 | 1005.6 |
| 20260505095926 | 20 | 202 | 12.9 | 19.3 | 0.00 | 0.00 | 0.00 | 84 | 1005.5 |
| 20260505095024 | 20 | 211 | 12.9 | 24.1 | 0.00 | 0.00 | 0.00 | 84 | 1005.7 |
| 20260505094024 | 20 | 208 | 16.1 | 27.4 | 0.00 | 0.00 | 0.00 | 84 | 1005.8 |
| 20260505092125 | 20 | 209 | 16.1 | 25.7 | 0.00 | 0.00 | 0.00 | 83 | 1005.9 |
| 20260505091126 | 20 | 204 | 9.7 | 16.1 | 0.00 | 0.00 | 0.00 | 83 | 1006.1 |
| 20260505090126 | 20 | 193 | 14.5 | 20.9 | 0.00 | 0.00 | 0.00 | 83 | 1006.1 |
| 20260505083125 | 21 | 199 | 16.1 | 24.1 | 0.00 | 0.00 | 0.00 | 81 | 1006.2 |
| 20260505082126 | 21 | 208 | 16.1 | 27.4 | 0.00 | 0.00 | 0.00 | 81 | 1006.2 |
| 20260505080126 | 21 | 191 | 11.3 | 17.7 | 0.00 | 0.00 | 0.00 | 79 | 1006.2 |
| 20260505074125 | 21 | 189 | 17.7 | 24.1 | 0.00 | 0.00 | 0.00 | 77 | 1006.5 |
| 20260505073125 | 21 | 186 | 16.1 | 25.7 | 0.00 | 0.00 | 0.00 | 77 | 1006.7 |
| 20260505072124 | 21 | 200 | 14.5 | 22.5 | 0.00 | 0.00 | 0.00 | 76 | 1006.8 |
| 20260505071125 | 21 | 195 | 17.7 | 25.7 | 0.00 | 0.00 | 0.00 | 76 | 1007.1 |